This is the latest recevied weather packets stored in our database for station/object K7KAZ. If no packets are shown the sender has not sent any weather packets the latest 10 day(s).
| Time | Temp. | Humidity | Pressure | Rain* | Wind** | Luminosity | Snow |
|---|---|---|---|---|---|---|---|
| 1777306143 | 20° C | 29% | 1016.8 hPa | 0 mm | - | 513 W/m² | - |
| 1777305839 | 20° C | 31% | 1016.9 hPa | 0 mm | - | 484 W/m² | - |
| 1777305535 | 19.44° C | 32% | 1016.6 hPa | 0 mm | - | 493 W/m² | - |
| 1777305231 | 20° C | 31% | 1016.7 hPa | 0 mm | - | 493 W/m² | - |
| 1777304926 | 19.44° C | 32% | 1016.7 hPa | 0 mm | - | 459 W/m² | - |
| 1777304623 | 18.89° C | 32% | 1016.6 hPa | 0 mm | - | 393 W/m² | - |
| 1777304320 | 18.89° C | 33% | 1016.8 hPa | 0 mm | - | 377 W/m² | - |
| 1777304017 | 18.89° C | 33% | 1016.9 hPa | 0 mm | - | 377 W/m² | - |
| 1777303713 | 18.89° C | 34% | 1016.5 hPa | 0 mm | - | 354 W/m² | - |
| 1777303410 | 18.89° C | 34% | 1016.5 hPa | 0 mm | - | 340 W/m² | - |
| 1777303108 | 18.33° C | 34% | 1016.8 hPa | 0 mm | - | 319 W/m² | - |
| 1777302807 | 18.33° C | 34% | 1016.8 hPa | 0 mm | - | 305 W/m² | - |
| 1777302504 | 18.33° C | 35% | 1016.7 hPa | 0 mm | - | 289 W/m² | - |
| 1777302202 | 17.78° C | 36% | 1016.7 hPa | 0 mm | - | 224 W/m² | - |
| 1777301899 | 17.78° C | 36% | 1016.9 hPa | 0 mm | - | 253 W/m² | - |
| 1777301596 | 17.78° C | 36% | 1016.9 hPa | 0 mm | - | 248 W/m² | - |
| 1777301293 | 17.22° C | 37% | 1016.7 hPa | 0 mm | - | 206 W/m² | - |
| 1777300990 | 17.22° C | 37% | 1016.8 hPa | 0 mm | - | 203 W/m² | - |
| 1777300687 | 16.67° C | 37% | 1016.8 hPa | 0 mm | - | 187 W/m² | - |
| 1777300385 | 17.22° C | 37% | 1016.7 hPa | 0 mm | - | 185 W/m² | - |
| 1777300081 | 16.67° C | 37% | 1016.6 hPa | 0 mm | - | 168 W/m² | - |
| 1777299778 | 16.67° C | 38% | 1016.6 hPa | 0 mm | - | 150 W/m² | - |
| 1777299476 | 16.67° C | 39% | 1016.6 hPa | 0 mm | - | 138 W/m² | - |
| 1777299173 | 16.11° C | 40% | 1016.7 hPa | 0 mm | - | 124 W/m² | - |
| 1777298871 | 16.11° C | 40% | 1016.6 hPa | 0 mm | - | 115 W/m² | - |
* Rain latest hour (hover to see other rain measurements)
** Current wind speed in m/s (hover to see current wind gust speed)